McKinney, TX

4:26 AM CDT on October 19, 2017 (GMT -0500)
Collin County Regional

Weather History for KTKI - October, 2013

Change the Weather History Date:

Saturday, October 26, 2013

  Actual Average (KADS) Record (KADS)
Temperature  
Mean Temperature 64 °F -  
Max Temperature 75 °F 72 °F 88 °F (2014)
Min Temperature 53 °F 56 °F 32 °F (1996)
Degree Days  
Heating Degree Days 1    
Growing Degree Days 14 (Base 50)    
Moisture  
Dew Point 54 °F    
Average Humidity 81    
Maximum Humidity 97    
Minimum Humidity 61    
Precipitation  
Precipitation 1.35 in - - ()
Sea Level Pressure  
Sea Level Pressure 30.15 in    
Wind  
Wind Speed 7 mph (SSE)    
Max Wind Speed 14 mph    
Max Gust Speed 23 mph    
Visibility 8 miles    
Events Rain , Thunderstorm    
Averages and records for this station are not official NWS values.
T = Trace of Precipitation, MM = Missing Value Source: NWS Daily Summary

Daily Weather History Graph

Daily Weather History Graph

Search for Another Location

Airport or City:

Trip Planner

Search our weather history database for the weather conditions in past years. The results will help you decide how hot, cold, wet, or windy it might be!

Date:

Astronomy

Oct. 26, 2013 Rise Set
Actual Time 7:39 AM CDT 6:40 PM CDT
Civil Twilight 7:14 AM CDT 7:05 PM CDT
Nautical Twilight 6:45 AM CDT 7:34 PM CDT
Astronomical Twilight 6:16 AM CDT 8:03 PM CDT
Moon 12:06 AM CDT (10/26) 1:54 PM CDT (10/26)
Length of Visible Light 11h 51m
Length of Day
11h 00m
Waning Gibbous, 53% of the Moon is Illuminated
Oct 26
Waning Gibbous
Oct 26
Last Quarter
Nov 3
New
Nov 9
First Quarter
Nov 17
Full

Hourly Weather History & Observations

Time (CDT) Temp. Dew Point Humidity Pressure Visibility Wind Dir Wind Speed Gust Speed Precip Events Conditions
12:53 AM 54.0 °F 45.0 °F 72% 30.27 in 10.0 mi SE 5.8 mph - N/A   Clear
1:53 AM 53.1 °F 46.0 °F 77% 30.25 in 10.0 mi SSE 3.5 mph - N/A   Clear
2:53 AM 53.1 °F 46.0 °F 77% 30.24 in 10.0 mi SE 5.8 mph - N/A   Clear
3:53 AM 53.1 °F 46.0 °F 77% 30.22 in 10.0 mi SSE 8.1 mph - N/A   Clear
4:53 AM 53.1 °F 46.9 °F 80% 30.23 in 10.0 mi SSE 3.5 mph - N/A   Scattered Clouds
5:53 AM 54.0 °F 48.0 °F 80% 30.24 in 10.0 mi Calm Calm - N/A   Overcast
6:53 AM 53.1 °F 48.0 °F 83% 30.24 in 10.0 mi Calm Calm - N/A   Scattered Clouds
7:53 AM 54.0 °F 48.9 °F 83% 30.22 in 10.0 mi South 6.9 mph - N/A   Overcast
8:53 AM 57.0 °F 48.9 °F 74% 30.23 in 10.0 mi South 8.1 mph - N/A   Overcast
9:24 AM 57.2 °F 48.2 °F 72% 30.21 in 10.0 mi South 9.2 mph - N/A   Overcast
9:53 AM 61.0 °F 50.0 °F 67% 30.23 in 10.0 mi South 9.2 mph - N/A   Overcast
10:00 AM 60.8 °F 50.0 °F 68% 30.22 in 10.0 mi South 9.2 mph - N/A   Overcast
10:30 AM 60.8 °F 50.0 °F 68% 30.22 in 10.0 mi South 6.9 mph - N/A   Mostly Cloudy
10:53 AM 62.1 °F 51.1 °F 67% 30.23 in 10.0 mi South 6.9 mph - N/A   Mostly Cloudy
11:53 AM 64.0 °F 54.0 °F 70% 30.21 in 10.0 mi South 9.2 mph - N/A   Overcast
12:53 PM 69.1 °F 57.0 °F 65% 30.19 in 10.0 mi SSW 11.5 mph - N/A   Mostly Cloudy
1:53 PM 73.0 °F 59.0 °F 61% 30.15 in 10.0 mi South 9.2 mph - N/A   Mostly Cloudy
2:53 PM 73.0 °F 61.0 °F 66% 30.11 in 10.0 mi SSW 10.4 mph - 0.00 in Rain Light Rain
3:53 PM 75.0 °F 62.1 °F 64% 30.09 in 10.0 mi South 11.5 mph - 0.00 in   Mostly Cloudy
4:53 PM 73.9 °F 61.0 °F 64% 30.06 in 10.0 mi South 11.5 mph - N/A   Overcast
5:53 PM 72.0 °F 63.0 °F 73% 30.04 in 8.0 mi South 13.8 mph - 0.01 in Rain Rain
6:53 PM 64.0 °F 57.0 °F 78% 30.08 in 10.0 mi ENE 10.4 mph 23.0 mph 0.01 in   Overcast
7:02 PM 62.6 °F 55.4 °F 77% 30.06 in 10.0 mi NE 11.5 mph 17.3 mph N/A Thunderstorm Overcast
7:24 PM 60.8 °F 57.2 °F 88% 30.14 in 1.5 mi NW 12.7 mph 23.0 mph 0.26 in Rain , Thunderstorm Heavy Thunderstorms and Rain
7:29 PM 59.0 °F 57.2 °F 94% 30.09 in 0.8 mi NE 11.5 mph - 0.58 in Rain , Thunderstorm Heavy Thunderstorms and Rain
7:36 PM 59.0 °F 57.2 °F 94% 30.09 in 1.0 mi North 6.9 mph - 0.69 in Rain , Thunderstorm Heavy Thunderstorms and Rain
7:42 PM 59.0 °F 57.2 °F 94% 30.10 in 2.0 mi NNW 4.6 mph - 0.75 in Rain , Thunderstorm Heavy Thunderstorms and Rain
7:49 PM 59.0 °F 57.2 °F 94% 30.09 in 2.5 mi NE 3.5 mph - 0.82 in Rain , Thunderstorm Heavy Thunderstorms and Rain
7:53 PM 59.0 °F 57.9 °F 96% 30.10 in 2.5 mi East 5.8 mph - 0.85 in Rain , Thunderstorm Heavy Thunderstorms and Rain
8:00 PM 59.0 °F 57.2 °F 94% 30.10 in 4.0 mi Calm Calm - 0.01 in Rain , Thunderstorm Thunderstorms and Rain
8:53 PM 59.0 °F 57.9 °F 96% 30.15 in 3.0 mi NNE 5.8 mph - 0.19 in Rain , Thunderstorm Heavy Thunderstorms and Rain
9:06 PM 59.0 °F 57.2 °F 94% 30.12 in 3.0 mi ESE 4.6 mph - 0.06 in Rain , Thunderstorm Heavy Rain
9:15 PM 59.0 °F 57.2 °F 94% 30.13 in 6.0 mi ENE 4.6 mph - 0.08 in Rain , Thunderstorm Thunderstorms and Rain
9:53 PM 57.9 °F 57.0 °F 97% 30.10 in 5.0 mi East 6.9 mph - 0.21 in Rain , Thunderstorm Heavy Rain
10:29 PM 59.0 °F 57.2 °F 94% 30.06 in 9.0 mi ESE 11.5 mph 20.7 mph 0.07 in Rain Rain
10:39 PM 59.0 °F 57.2 °F 94% 30.08 in 10.0 mi SSE 10.4 mph 18.4 mph 0.07 in Rain Light Rain
10:53 PM 59.0 °F 57.9 °F 96% 30.10 in 10.0 mi South 9.2 mph - 0.08 in Rain Light Rain
11:53 PM 60.1 °F 57.9 °F 93% 30.11 in 10.0 mi Calm Calm - 0.00 in   Overcast